Find Starlink 33569

NORAD ID: 62769 Int'l Des: 2025-015 Owner: SPXS Country: US Constellation: starlink operational
LEOCIRCULAR

实时位置

正在加载3D地球...

关于 Starlink 33569

正在加载描述...

即将过境

Passes for default location (London). Set your location on the main map for personalized predictions.

高度历史

Loading altitude history...

两行轨道根数

1 62769U 25015M 26127.07444457 .00024299 00000-0 82964-3 0 9994
2 62769 53.1583 51.0155 0001183 84.1095 276.0040 15.30207854 73424
Epoch: May 7, 2026 • Age: 8 hours

当前状态

高度 484.7 km
速度 7.62 km/s
星下点 -29.90°S, 17.06°E
发射日期 Jan 21, 2025
运行时间 1.2 years
类型 internet

技术详情

分类 Payload
质量 575.00 kg
干质量 530.00 kg
总质量 575.00 kg
长度 0.30 m
直径 4.10 m
跨度 29.00 m
形状 Box + pan
制造商 SPXS
平台类型 Starlink V2MO
阶段状态 In Orbit
所有者/国家 SPXS/US

Most Searched